Wetter

ACHTUNG: Die hier angeboten Wetter-Informationen sind nicht geeicht und dürfen für Flugvorbereitungen nicht verwendet werden
ACG Flugwetter
METAR/TAF LOXZ

LOXZ 081320Z VRB02KT 9999 FEW003 SCT040 BKN050 17/14 Q1023 NOSIG

TAF LOXZ 181415Z 1812/1824 CNL

METAR/TAF LOXA

LOXA 100820Z VRB02KT 50KM FEW120AC SCT300CI 17/13 Q1021 NOSIG RMK SCT

TAF TAF LOXA 090515Z 0906/0918 VRB03KT 0500 FG SCT060 BECMG 0906/0908 9999 NSW FEW060 BECMG 0909/0911 04007KT TEMPO 0910/0915 SCT060 BKN100

METAR/TAF LOWG 

LOWG 081320Z 03003KT 310V090 9999 FEW035 BKN055 23/12 Q1021 NOSIG

TAF TAF LOWG 081115Z 0812/0912 09005KT 9999 FEW030 BKN040 TX25/0912Z TN15/0903Z PROB30 TEMPO 0812/0814 -SHRA

(Information der letzten Stunde)

(Information der letzten Stunde)

Dichtehöhe (in LOGT)
Temperatur / Windchill der letzten 10 Tage

Ext. Links zu Wetterdiensten

ALDIS

Öster.- Unwetterzentrale